Date String (YYYY-MM-DD hh:mm:ss) UTC,Instrument flags,absolute air pressure of the measurement (hPa),sample flow rate (lpm),inlet stack bypass flow (lpm),air temperature of the measurement (°C),ambient temperature measured by the external sensor (°C),aerosol sample conditioner tube jacket temperature (°C),OPC LED temperature (°C),internal box temperature (°C),relative humidity of the measurement (%),span deviation,mass concentration of particles derived from Lorenz-Mie calculation of OPC scattering (μg/m³),mass concentration of particles derived from Lorenz-Mie calculation of OPC scattering (μg/m³),mass concentration of particles derived from Lorenz-Mie calculation of OPC scattering (μg/m³)
DateTimeUTC,F1_M11,P_M11,Q1_M11,Q2_M11,T1_M11,T2_M11,T3_M11,T4_M11,T5_M11,U1_M11,ZSPAN_M11,X0_M11,X2_M11,X1_M11
2024-04-10 10:00:00,SystemResetWarning,0829.0,5.01,000.00,024.9,024.2,000.0,033.4,026.8,014.4,0000.0,0003.29,0001.13,0000.55
2024-04-10 10:01:00,SystemResetWarning,0829.0,5.01,000.00,024.9,024.2,000.0,033.4,026.8,014.4,0000.0,0003.24,0001.12,0000.55
2024-04-10 10:02:00,SystemResetWarning,0829.0,5.01,000.00,024.9,024.2,000.0,033.4,026.8,014.4,0000.0,0003.09,0001.06,0000.55
2024-04-10 10:03:00,SystemResetWarning,0828.9,5.00,000.00,024.9,024.2,000.0,033.4,026.8,014.4,0000.0,0003.04,0001.04,0000.55
2024-04-10 10:04:00,SystemResetWarning,0828.9,5.00,000.00,024.9,024.2,000.0,033.5,026.8,014.3,0000.0,0003.02,0001.02,0000.55
2024-04-10 10:05:00,SystemResetWarning,0828.9,5.00,000.00,024.9,024.2,000.0,033.5,026.8,014.4,0000.0,0003.02,0001.04,0000.54
2024-04-10 10:06:00,SystemResetWarning,0828.9,5.00,000.00,024.9,024.2,000.0,033.5,026.8,014.5,0000.0,0002.81,0001.04,0000.54
2024-04-10 10:07:00,SystemResetWarning,0828.9,4.99,000.00,024.9,024.2,000.0,033.5,026.8,014.6,0000.0,0002.50,0001.03,0000.53
2024-04-10 10:08:00,SystemResetWarning,0829.0,4.99,000.00,024.9,024.2,000.0,033.5,026.8,014.5,0000.0,0002.06,0001.03,0000.54
2024-04-10 10:09:00,SystemResetWarning,0829.0,5.00,000.00,024.9,024.2,000.0,033.5,026.8,014.5,0000.0,0001.95,0001.00,0000.53
2024-04-10 10:10:00,SystemResetWarning,0828.9,5.00,000.00,024.9,024.2,000.0,033.5,026.8,014.6,0000.0,0001.82,0000.96,0000.53
2024-04-10 10:11:00,SystemResetWarning,0828.9,5.00,000.00,024.9,024.2,000.0,033.5,026.8,014.7,0000.0,0001.69,0000.92,0000.52
2024-04-10 10:12:00,SystemResetWarning,0828.9,4.99,000.00,024.9,024.2,000.0,033.5,026.8,014.8,0000.0,0001.93,0000.97,0000.53
2024-04-10 10:13:00,SystemResetWarning,0829.0,5.00,000.00,024.9,024.2,000.0,033.5,026.8,014.8,0000.0,0001.94,0000.97,0000.53
2024-04-10 10:14:00,SystemResetWarning,0828.9,5.02,000.00,024.9,024.2,000.0,033.5,026.8,014.9,0000.0,0003.22,0000.95,0000.52
2024-04-10 10:15:00,SystemResetWarning,0829.0,4.99,000.00,024.9,024.2,000.0,033.5,026.8,015.0,0000.0,0003.40,0000.96,0000.53
2024-04-10 10:16:00,SystemResetWarning,0829.0,4.99,000.00,024.9,024.2,000.0,033.5,026.8,015.0,0000.0,0003.47,0000.96,0000.52
2024-04-10 10:17:00,SystemResetWarning,0829.1,5.00,000.00,024.9,024.2,000.0,033.5,026.8,015.0,0000.0,0003.45,0000.94,0000.52
2024-04-10 10:18:00,SystemResetWarning,0829.0,5.01,000.00,024.9,024.2,000.0,033.5,026.8,015.0,0000.0,0003.48,0000.94,0000.52
2024-04-10 10:19:00,SystemResetWarning,0829.0,5.01,000.00,024.9,024.2,000.0,033.5,026.8,014.8,0000.0,0003.61,0000.97,0000.52
2024-04-10 10:20:00,SystemResetWarning,0829.0,5.00,000.00,024.9,024.2,000.0,033.5,026.8,014.5,0000.0,0003.71,0001.00,0000.52
2024-04-10 10:21:00,SystemResetWarning,0829.0,4.99,000.00,024.9,024.2,000.0,033.5,026.8,014.0,0000.0,0003.80,0001.02,0000.52
2024-04-10 10:22:00,SystemResetWarning,0829.0,5.00,000.00,024.9,024.2,000.0,033.5,026.8,014.1,0000.0,0003.93,0001.06,0000.52
2024-04-10 10:23:00,SystemResetWarning,0829.0,5.00,000.00,024.9,024.2,000.0,033.5,026.8,013.9,0000.0,0003.76,0001.02,0000.51
2024-04-10 10:24:00,SystemResetWarning,0829.0,5.01,000.00,024.9,024.2,000.0,033.5,026.8,013.7,0000.0,0003.75,0001.01,0000.52
2024-04-10 10:25:00,SystemResetWarning,0828.9,5.00,000.00,024.9,024.2,000.0,033.5,026.8,013.6,0000.0,0002.95,0001.06,0000.53
2024-04-10 10:26:00,SystemResetWarning,0828.9,5.01,000.00,024.9,024.2,000.0,033.5,026.8,013.9,0000.0,0002.48,0001.10,0000.54
2024-04-10 10:27:00,SystemResetWarning,0828.9,4.99,000.00,024.9,024.2,000.0,033.5,026.8,014.0,0000.0,0002.46,0001.10,0000.54
2024-04-10 10:28:00,SystemResetWarning,0828.9,4.99,000.00,024.9,024.1,000.0,033.5,026.7,013.5,0000.0,0002.39,0001.08,0000.54
2024-04-10 10:29:00,SystemResetWarning,0828.9,5.00,000.00,024.9,024.1,000.0,033.4,026.7,014.0,0000.0,0002.36,0001.08,0000.55
2024-04-10 10:30:00,SystemResetWarning,0829.0,4.99,000.00,024.9,024.1,000.0,033.4,026.7,014.1,0000.0,0002.33,0001.10,0000.55
2024-04-10 10:31:00,SystemResetWarning,0829.0,5.00,000.00,024.9,024.1,000.0,033.4,026.7,013.9,0000.0,0002.29,0001.09,0000.56
2024-04-10 10:32:00,SystemResetWarning,0829.0,5.01,000.00,024.9,024.1,000.0,033.4,026.7,013.7,0000.0,0002.30,0001.11,0000.58
2024-04-10 10:33:00,SystemResetWarning,0829.0,5.00,000.00,024.9,024.1,000.0,033.4,026.7,013.6,0000.0,0002.39,0001.15,0000.59
2024-04-10 10:34:00,SystemResetWarning,0829.0,5.00,000.00,024.9,024.1,000.0,033.4,026.7,013.7,0000.0,0002.51,0001.21,0000.60
2024-04-10 10:35:00,SystemResetWarning,0829.0,5.00,000.00,024.9,024.1,000.0,033.4,026.7,013.9,0000.0,0002.81,0001.29,0000.61
2024-04-10 10:36:00,SystemResetWarning,0829.0,5.00,000.00,024.9,024.1,000.0,033.4,026.7,014.0,0000.0,0002.59,0001.24,0000.61
2024-04-10 10:37:00,SystemResetWarning,0828.9,4.99,000.00,024.8,024.1,000.0,033.4,026.7,013.8,0000.0,0002.53,0001.23,0000.61
2024-04-10 10:38:00,SystemResetWarning,0828.9,4.99,000.00,024.8,024.1,000.0,033.4,026.7,014.0,0000.0,0002.46,0001.21,0000.61
2024-04-10 10:39:00,SystemResetWarning,0828.9,5.01,000.00,024.8,024.1,000.0,033.4,026.7,014.1,0000.0,0002.55,0001.27,0000.62
2024-04-10 10:40:00,SystemResetWarning,0829.0,5.00,000.00,024.8,024.1,000.0,033.4,026.7,014.1,0000.0,0002.71,0001.33,0000.63
2024-04-10 10:41:00,SystemResetWarning,0829.0,5.01,000.00,024.8,024.1,000.0,033.4,026.7,013.8,0000.0,0002.77,0001.35,0000.63
2024-04-10 10:42:00,SystemResetWarning,0828.9,4.99,000.00,024.8,024.0,000.0,033.4,026.7,013.8,0000.0,0002.83,0001.38,0000.65
2024-04-10 10:43:00,SystemResetWarning,0829.0,4.99,000.00,024.8,024.0,000.0,033.4,026.6,013.7,0000.0,0002.84,0001.39,0000.67
2024-04-10 10:44:00,SystemResetWarning,0829.0,5.00,000.00,024.8,024.0,000.0,033.4,026.6,013.8,0000.0,0002.77,0001.37,0000.67
2024-04-10 10:45:00,SystemResetWarning,0829.0,5.00,000.00,024.8,024.0,000.0,033.4,026.6,013.8,0000.0,0002.71,0001.37,0000.69
2024-04-10 10:46:00,SystemResetWarning,0829.0,5.00,000.00,024.8,024.0,000.0,033.4,026.6,013.7,0000.0,0002.42,0001.30,0000.69
2024-04-10 10:47:00,SystemResetWarning,0829.1,5.00,000.00,024.8,024.0,000.0,033.4,026.6,013.6,0000.0,0002.63,0001.36,0000.71
2024-04-10 10:48:00,SystemResetWarning,0829.1,5.01,000.00,024.8,024.0,000.0,033.3,026.6,013.7,0000.0,0003.27,0001.41,0000.73
2024-04-10 10:49:00,SystemResetWarning,0829.1,5.00,000.00,024.8,024.0,000.0,033.3,026.6,013.7,0000.0,0003.52,0001.46,0000.74
2024-04-10 10:50:00,SystemResetWarning,0829.1,5.00,000.00,024.8,024.0,000.0,033.3,026.6,013.4,0000.0,0003.66,0001.48,0000.76
2024-04-10 10:51:00,SystemResetWarning,0829.1,5.00,000.00,024.7,024.0,000.0,033.3,026.6,013.4,0000.0,0003.57,0001.44,0000.78
2024-04-10 10:52:00,SystemResetWarning,0829.1,4.99,000.00,024.7,024.0,000.0,033.3,026.6,013.5,0000.0,0003.52,0001.44,0000.81
2024-04-10 10:53:00,SystemResetWarning,0829.2,4.99,000.00,024.7,024.0,000.0,033.3,026.6,013.8,0000.0,0003.70,0001.53,0000.83
2024-04-10 10:54:00,SystemResetWarning,0829.2,5.00,000.00,024.7,024.0,000.0,033.3,026.6,014.4,0000.0,0003.84,0001.57,0000.82
2024-04-10 10:55:00,SystemResetWarning,0829.2,5.00,000.00,024.7,024.0,000.0,033.3,026.6,014.6,0000.0,0003.92,0001.60,0000.81
2024-04-10 10:56:00,SystemResetWarning,0829.2,5.00,000.00,024.7,024.0,000.0,033.3,026.6,014.8,0000.0,0003.90,0001.57,0000.79
2024-04-10 10:57:00,SystemResetWarning,0829.2,5.00,000.00,024.7,024.0,000.0,033.3,026.6,014.9,0000.0,0003.94,0001.59,0000.78
2024-04-10 10:58:00,SystemResetWarning,0829.2,5.00,000.00,024.7,024.0,000.0,033.3,026.6,014.9,0000.0,0003.78,0001.55,0000.76
2024-04-10 10:59:00,SystemResetWarning,0829.2,5.00,000.00,024.7,024.0,000.0,033.3,026.6,014.9,0000.0,0003.21,0001.53,0000.75
